Regional Weather Roundup
Issued by NWS Green Bay, WI

Home | Current Version | Previous Version | Graphics & Text | Print | Product List | Glossary Off
Versions: 1 2 3 4 5 6 7 8 9 10 11 12 13 14 15 16 17 18 19 20 21 22 23 24 25 26 27 28 29 30 31 32 33 34 35 36 37 38 39 40 41 42 43 44 45 46 47 48 49 50

000
ASUS43 KGRB 242359
RWRGRB

NORTH-CENTRAL AND NORTHEAST WISCONSIN REGIONAL WEATHER ROUNDUP
NATIONAL WEATHER SERVICE GREEN BAY WI
700 PM CDT THU APR 24 2014

WIZ005-009-010>012-018-019-250100-
NORTH CENTRAL WISCONSIN

CITY           SKY/WX    TMP DP  RH WIND       PRES   REMARKS
IRONWOOD       NOT AVBL
MANITOWISH WTR NOT AVBL
ARBOR VITAE    NOT AVBL
EAGLE RIVER    NOT AVBL
LAND O LAKES   NOT AVBL
RHINELANDER    LGT RAIN  35  34  96 SE18G26   29.75F FOG
PHILLIPS       NOT AVBL
ANTIGO         NOT AVBL
TOMAHAWK       NOT AVBL
MERRILL        NOT AVBL
$$

WIZ013-073-250100-
NORTHEAST WISCONSIN

CITY           SKY/WX    TMP DP  RH WIND       PRES   REMARKS
IRON MOUNTAIN  LGT SNOW  34  32  92 E9        29.84F FOG
MARINETTE      CLOUDY    37  34  87 E14       29.83F
$$

WIZ017-030-035>037-045-250100-
CENTRAL WISCONSIN

CITY           SKY/WX    TMP DP  RH WIND       PRES   REMARKS
MEDFORD        NOT AVBL
WAUSAU         LGT RAIN  40  40 100 SE16      29.71F FOG
MOSINEE        LGT RAIN  39  39 100 E14G22    29.74S FOG
MARSHFIELD     LGT RAIN  42  39  89 SE14      29.68F FOG
WISC RAPIDS    LGT RAIN  43  41  93 E8        29.72S FOG
STEVENS POINT  NOT AVBL
WAUPACA        NOT AVBL
SHAWANO        NOT AVBL
CLINTONVILLE   NOT AVBL
$$

WIZ038-039-048-051-250100-
FOX VALLEY

CITY           SKY/WX    TMP DP  RH WIND       PRES   REMARKS
NWS GREEN BAY  LGT RAIN  42  38  85 E8        29.80S
APPLETON       NOT AVBL
OSHKOSH        LGT RAIN  47  33  58 SE13      29.71F
FOND DU LAC    LGT RAIN  48  32  53 SE16G24   29.72F
$$

WIZ022-050-052-250100-
EAST CENTRAL WISCONSIN

CITY           SKY/WX    TMP DP  RH WIND       PRES   REMARKS
STURGEON BAY   CLOUDY    41  34  75 E10G20    29.81F
MANITOWOC      NOT AVBL
SHEBOYGAN      CLOUDY    49  27  42 SE15G29   29.77F
$$

LMZ563-521-522-541>543-250100-
LAKESHORE

STATION/POSITION TIME  TEMP    WIND        PRES    VSBY  WAVE
                       AIR SEA DIR/SP/G                  HT/PER
                 (UTC) (F)     (DEG/KT/KT) (MB)    (MI)  (FT/S)
SHEBOYGAN LKSHOR 2300   44     110/ 18/ 19 1009.1F
KEWAUNEE LKSHORE 2300   38      80/ 11/ 13 1010.7F
NORTHPORT PIER   2300   37      90/  8/ 11 1012.9F
SISTER BAY LKSHO 2300   40     100/ 13/ 22   N/A
MENOMINEE LKSHOR 2300   37      60/ 13/ 16 1011.1F
$$



USA.gov is the U.S. government's official web portal to all federal, state and local government web resources and services.